Location: Gellin
(53.4498°N, 14.3207°E)
Time: 23:25:19
(UTC+00:00)

Cosmos 2369 Rocket - Pass Details

Date: 03 March 2021
Orbit: 829 x 852 km, 71.0° (Epoch: 12 April)

Event Time Altitude Azimuth Distance (km) Brightness Sun altitude
Rises 21:28:06 0° 327° (NNW) 3,385 6.3 -38.3°
Reaches altitude 10° 21:30:32 10° 328° (NNW) 2,449 5.3 -38.5°
Enters shadow 21:32:57 27° 329° (NNW) 1,562 4.0 -38.7°
